Tracking 30995 objects as of 5-Jul-2025
HD Live streaming from Space Station
objects crossing your sky now

USA 65

Track USA 65 now!
USA 65 is classified as:


NORAD ID: 20929
Int'l Code: 1990-095A
Perigee: 36,304.5 km
Apogee: 36,349.5 km
Inclination: 14.2 °
Period: 1,463.4 minutes
Semi major axis: 42698 km
RCS: Unknown
Launch date: November 13, 1990
Source: United States (US)
Launch site: AIR FORCE EASTERN TEST RANGE (AFETR)
Your satellite tracking list
PAGEOS 1 DEB
Track 1 satellite(s)




NASA's NSSDC Master Catalog

Two Line Element Set (TLE):
1 20929U 90095A   25185.86570617 -.00000182  00000-0  00000-0 0  9998
2 20929  14.2194 346.4522 0005266 100.2051 276.4179  0.98399151 22059
Source of the keplerian elements: McCants